Miscellaneous Local Product
Issued by NWS North Platte, NE

Home | Current Version | Previous Version | Text Only | Print | Product List | Glossary On
Versions: 1 2 3 4 5 6 7 8 9 10 11 12 13 14 15 16 17 18 19 20 21 22 23 24 25 26 27 28 29 30 31 32 33 34 35 36 37 38 39 40 41 42 43 44 45 46 47 48 49 50
000
AXUS43 KLBF 301010
MISLBF


WESTERN AND NORTH CENTRAL NEBRASKA HOURLY WEATHER ROUNDUP
NATIONAL WEATHER SERVICE NORTH PLATTE NE
500 AM CDT SAT MAY 30 2015

***STATIONS NOT REPORTING VARIABLES SUCH AS SKY/WEATHER OR
PRESSURE ARE PROVIDED BY THE NEBRASKA DEPARTMENT OF
ROADS...RAWS...AND APRS NETWORKS...AND ARE NOT UNDER
NATIONAL WEATHER SERVICE QUALITY CONTROL***

...OBSERVATIONS IN AND NEAR THE EASTERN PANHANDLE OF NEBRASKA...

CITY           SKY/WX    TMP DP  RH WIND       PRES   REMARKS
PINE RIDGE     CLEAR     31  29  92 E3        30.31R
CHADRON        CLOUDY    37  37 100 CALM      30.30S FOG
ALLIANCE       FOG       36  36 100 CALM      30.29S VSB 1/4
SIDNEY         CLOUDY    45  44  97 W5        30.31S
WHITECLAY        N/A     30  29  96 SE3         N/A
CRESCENT LAKE    N/A     42  42 100 W3          N/A
BIG SPRINGS      N/A     43  41  94 CALM        N/A
$$

...OBSERVATIONS IN NORTH CENTRAL NEBRASKA...

CITY           SKY/WX    TMP DP  RH WIND       PRES   REMARKS
VALENTINE      CLEAR     38  35  89 N7        30.29S WCI  33
THEDFORD       MOCLDY    40  38  95 NW5       30.29S
AINSWORTH      PTCLDY    40  38  93 NW6       30.28S
O`NEILL        CLEAR     42  41  97 N9        30.25R
ORD            PTCLDY    43  40  89 NW10      30.23R
BROKEN BOW     CLEAR     44  39  82 NW8       30.25R
VALENTINE NWR    N/A     38  38  99 NW6         N/A  WCI  33
SPRINGVIEW       N/A     38  36  93 CALM        N/A
HALSEY           N/A     39  38  97 NW3         N/A
NEWPORT          N/A     39  39  98 NW6         N/A
SARGENT          N/A     42  40  91 CALM        N/A
CHAMBERS         N/A     47  43  86 N5          N/A
EWING            N/A     46  43  88 N7          N/A
$$

...OBSERVATIONS IN SOUTHWEST NEBRASKA AND FAR NORTHEAST COLORADO...

CITY           SKY/WX    TMP DP  RH WIND       PRES   REMARKS
WRAY           CLOUDY    47  44  88 NW5       30.31F
HOLYOKE        CLOUDY    48  43  81 NW5       30.30F
IMPERIAL       CLEAR     43  40  89 NW7       30.30S
OGALLALA       CLEAR     40  39  97 NW7       30.30F
NORTH PLATTE   CLEAR     39  37  92 NW7       30.29S WCI  34
MCCOOK         CLEAR     45  41  86 NW9       30.27S
LEXINGTON      PTCLDY    45  42  90 NW10      30.25S
PAXTON           N/A     45  42  91 CALM        N/A
GOTHENBURG       N/A     42  39  88 NW8         N/A
$$

...NORTH PLATTE AREA...

CITY           SKY/WX    TMP DP  RH WIND       PRES   REMARKS
AIRPORT        CLEAR     39  37  92 NW7       30.29S WCI  34
DOWNTOWN         N/A     42  39  90 CALM        N/A
$$

...SOME WEATHER OBSERVATIONS FROM AROUND THE REGION...

CITY           SKY/WX    TMP DP  RH WIND       PRES   REMARKS
DENVER         PTCLDY    44  41  89 S7        30.30F
LARAMIE        MOCLDY    38  38 100 S12       30.31S FOG     WCI  30
CHEYENNE       CLOUDY    45  43  93 SW12      30.30F
SCOTTSBLUFF    CLOUDY    47  46  97 S5        30.30S
RAPID CITY     CLEAR     35  34  96 CALM      30.30S
PIERRE         CLEAR     37  34  89 NE6       30.30R WCI  32
WINNER         FAIR      39  35  86 CALM      30.29R
SIOUX FALLS    MOCLDY    45  39  79 N10       30.20R
OMAHA          CLOUDY    52  47  83 N15G24    30.11R
GRAND ISLAND   PTCLDY    47  42  83 N12       30.21R
KANSAS CITY    LGT RAIN  60  60 100 NW14G21   30.00R FOG
WICHITA        CLOUDY    57  51  80 N20       30.09R
HAYS           MOCLDY    52  39  62 N24G31    30.17F
LIBERAL        CLOUDY    55  46  71 N12       30.25R
GOODLAND       CLOUDY    48  46  93 N12       30.28F
$$



USA.gov is the U.S. government's official web portal to all federal, state and local government web resources and services.